Edwards AFB North Base, CA

1:40 AM PST on November 22, 2019 (GMT -0800)
Edwards AFB North Base

Weather History for K9L2 - September, 2019

Change the Weather History Date:

Wednesday, September 4, 2019

  Actual Average (WUND) Record (WUND)
Temperature  
Mean Temperature 86 °F -  
Max Temperature 103 °F - - (-1)
Min Temperature 69 °F - - (-1)
Cooling Degree Days 20    
Growing Degree Days 36 (Base 50)    
Moisture  
Dew Point 47 °F    
Average Humidity 28    
Maximum Humidity 44    
Minimum Humidity 14    
Precipitation  
Precipitation 0.00 in - - ()
Sea Level Pressure  
Sea Level Pressure 29.84 in    
Wind  
Wind Speed 4 mph ()    
Max Wind Speed 18 mph    
Max Gust Speed 29 mph    
Visibility 9.4 miles    
Events      
Averages and records for this station are not official NWS values.
T = Trace of Precipitation, MM = Missing Value Source: Averaged Metar Reports

Daily Weather History Graph

Daily Weather History Graph

Search for Another Location

Airport or City:

Astronomy

Sep. 04, 2019 Rise Set
Actual Time 6:26 AM PDT 7:14 PM PDT
Civil Twilight 6:00 AM PDT 7:39 PM PDT
Nautical Twilight 5:30 AM PDT 8:10 PM PDT
Astronomical Twilight 4:58 AM PDT 8:41 PM PDT
Moon 12:18 PM PDT (9/4) 11:06 PM PDT (9/4)
Length of Visible Light 13h 39m
Length of Day
12h 47m
Waxing Crescent, 36% of the Moon is Illuminated
Sep 4
Waxing Crescent
Sep 5
First Quarter
Sep 13
Full
Sep 21
Last Quarter
Sep 28
New

Hourly Weather History & Observations

Time (PDT) Temp. Dew Point Humidity Pressure Visibility Wind Dir Wind Speed Gust Speed Precip Events Conditions
12:58 AM 82.0 °F 48.4 °F 31% 29.85 in 10.0 mi SSW 6.9 mph - N/A   Clear
1:58 AM 78.4 °F 47.5 °F 34% 29.84 in 10.0 mi Calm Calm - N/A   Scattered Clouds
2:13 AM 78.8 °F 48.2 °F 34% 29.84 in 10.0 mi Calm Calm - N/A   Mostly Cloudy
2:28 AM 77.0 °F 46.4 °F 34% 29.84 in 10.0 mi Calm Calm - N/A   Scattered Clouds
2:58 AM 76.8 °F 46.8 °F 34% 29.84 in 10.0 mi Calm Calm - N/A   Mostly Cloudy
3:58 AM 74.3 °F 46.8 °F 37% 29.84 in 10.0 mi SSE 3.5 mph - N/A   Clear
4:58 AM 71.2 °F 45.1 °F 39% 29.85 in 10.0 mi Calm Calm - N/A   Scattered Clouds
5:58 AM 69.6 °F 46.8 °F 44% 29.85 in 10.0 mi Calm Calm - N/A   Overcast
6:28 AM 69.8 °F 46.4 °F 43% 29.86 in 10.0 mi ESE 3.5 mph - N/A   Mostly Cloudy
6:58 AM 70.5 °F 47.5 °F 44% 29.87 in 10.0 mi SSE 3.5 mph - N/A   Partly Cloudy
7:58 AM 75.4 °F 49.3 °F 40% 29.88 in 10.0 mi Calm Calm - N/A   Clear
8:58 AM 81.5 °F 50.2 °F 34% 29.89 in 10.0 mi Calm Calm - N/A   Clear
9:58 AM 85.6 °F 48.7 °F 28% 29.89 in 9.0 mi Calm Calm - N/A   Clear
10:58 AM 90.0 °F 48.2 °F 24% 29.87 in 9.0 mi South 3.5 mph - N/A   Clear
11:58 AM 95.5 °F 48.2 °F 20% 29.86 in 9.0 mi Calm Calm - N/A   Clear
12:58 PM 98.2 °F 48.0 °F 18% 29.84 in 9.0 mi Calm Calm - N/A   Clear
1:58 PM 101.3 °F 44.4 °F 14% 29.82 in 9.0 mi SSE 8.1 mph - N/A   Clear
2:58 PM 102.6 °F 44.2 °F 14% 29.79 in 10.0 mi SSE 12.7 mph 17.3 mph N/A   Clear
3:58 PM 101.7 °F 43.5 °F 14% 29.78 in 8.0 mi SSE 6.9 mph - N/A   Clear
4:24 PM 102.2 °F 44.6 °F 14% 29.76 in 8.0 mi SSW 16.1 mph 28.8 mph N/A   Partly Cloudy
4:58 PM 100.9 °F 44.8 °F 15% 29.78 in 8.0 mi SSW 15.0 mph - N/A   Scattered Clouds
5:58 PM 99.0 °F 46.6 °F 17% 29.78 in 8.0 mi SW 18.4 mph 23.0 mph N/A   Clear
6:58 PM 95.0 °F 48.9 °F 21% 29.79 in 8.0 mi SW 16.1 mph - N/A   Clear
7:58 PM 91.6 °F 49.6 °F 24% 29.83 in 9.0 mi SSW 15.0 mph - N/A   Clear
8:58 PM 88.0 °F 50.7 °F 28% 29.84 in 10.0 mi SSW 13.8 mph - N/A   Clear
9:58 PM 85.5 °F 50.5 °F 30% 29.86 in 10.0 mi SSW 10.4 mph - N/A   Clear
10:58 PM 82.8 °F 48.2 °F 30% 29.86 in 10.0 mi West 4.6 mph - N/A   Clear
11:58 PM 83.1 °F 46.8 °F 28% 29.86 in 10.0 mi SSW 10.4 mph - N/A   Scattered Clouds